Location: Unspecified
(0.0000°N, 0.0000°E)
Time: 03:05:19
(UTC+00:00)

USA 238 DEB - Pass Details

Date: 05 June 2023
Orbit: 930 x 1283 km, 63.4° (Epoch: 27 September)

Event Time Altitude Azimuth Distance (km) Brightness Sun altitude
Rises 03:33:21 0° 14° (NNE) 4,176 7.3 -33.1°
Reaches altitude 10° 03:38:05 10° 39° (NE) 3,253 6.9 -32.1°
Maximum altitude 03:41:34 13° 66° (ENE) 3,017 6.9 -31.3°
Drops below altitude 10° 03:45:03 10° 92° (E) 3,278 6.9 -30.5°
Sets 03:49:47 0° 117° (ESE) 4,236 7.3 -29.5°
